Year,Month,Day,Hour,Minute,Value (Times are PST for temperature in C)
2009,07,28,00,00,22.90
2009,07,28,00,01,22.90
2009,07,28,00,02,22.90
2009,07,28,00,03,22.90
2009,07,28,00,04,22.90
2009,07,28,00,05,22.90
2009,07,28,00,06,22.90
2009,07,28,00,07,22.90
2009,07,28,00,08,22.90
2009,07,28,00,09,22.90
2009,07,28,00,10,23.00
2009,07,28,00,11,23.10
2009,07,28,00,12,23.10
2009,07,28,00,13,23.10
2009,07,28,00,14,23.20
2009,07,28,00,15,23.20
2009,07,28,00,16,23.20
2009,07,28,00,17,23.20
2009,07,28,00,18,23.20
2009,07,28,00,19,23.20
2009,07,28,00,20,23.20
2009,07,28,00,21,23.20
2009,07,28,00,22,23.20
2009,07,28,00,23,23.20
2009,07,28,00,24,23.20
2009,07,28,00,25,23.20
2009,07,28,00,26,23.20
2009,07,28,00,27,23.20
2009,07,28,00,28,23.20
2009,07,28,00,29,23.10
2009,07,28,00,30,23.10
2009,07,28,00,31,23.10
2009,07,28,00,32,23.10
2009,07,28,00,33,23.10
2009,07,28,00,34,23.10
2009,07,28,00,35,23.10
2009,07,28,00,36,23.10
2009,07,28,00,37,23.10
2009,07,28,00,38,23.10
2009,07,28,00,39,23.10
2009,07,28,00,40,23.10
2009,07,28,00,41,23.10
2009,07,28,00,42,23.10
2009,07,28,00,43,23.10
2009,07,28,00,44,23.10
2009,07,28,00,45,23.10
2009,07,28,00,46,23.10
2009,07,28,00,47,23.10
2009,07,28,00,48,23.20
2009,07,28,00,49,23.20
2009,07,28,00,50,23.20
2009,07,28,00,51,23.30
2009,07,28,00,52,23.30
2009,07,28,00,53,23.30
2009,07,28,00,54,23.30
2009,07,28,00,55,23.30
2009,07,28,00,56,23.30
2009,07,28,00,57,23.30
2009,07,28,00,58,23.30
2009,07,28,00,59,23.40
2009,07,28,01,00,23.40
2009,07,28,01,01,23.40
2009,07,28,01,02,23.40
2009,07,28,01,03,23.40
2009,07,28,01,04,23.40
2009,07,28,01,05,23.30
2009,07,28,01,06,23.30
2009,07,28,01,07,23.30
2009,07,28,01,08,23.30
2009,07,28,01,09,23.20
2009,07,28,01,10,23.20
2009,07,28,01,11,23.20
2009,07,28,01,12,23.20
2009,07,28,01,13,23.10
2009,07,28,01,14,23.10
2009,07,28,01,15,23.10
2009,07,28,01,16,23.00
2009,07,28,01,17,22.90
2009,07,28,01,18,22.90
2009,07,28,01,19,22.80
2009,07,28,01,20,22.80
2009,07,28,01,21,22.70
2009,07,28,01,22,22.60
2009,07,28,01,23,22.60
2009,07,28,01,24,22.50
2009,07,28,01,25,22.40
2009,07,28,01,26,22.30
2009,07,28,01,27,22.30
2009,07,28,01,28,22.20
2009,07,28,01,29,22.10
2009,07,28,01,30,22.00
2009,07,28,01,31,21.90
2009,07,28,01,32,21.70
2009,07,28,01,33,21.60
2009,07,28,01,34,21.50
2009,07,28,01,35,21.40
2009,07,28,01,36,21.30
2009,07,28,01,37,21.30
2009,07,28,01,38,21.30
2009,07,28,01,39,21.20
2009,07,28,01,40,21.20
2009,07,28,01,41,21.20
2009,07,28,01,42,21.20
2009,07,28,01,43,21.10
2009,07,28,01,44,21.10
2009,07,28,01,45,21.10
2009,07,28,01,46,21.10
2009,07,28,01,47,21.10
2009,07,28,01,48,21.00
2009,07,28,01,49,21.00
2009,07,28,01,50,21.00
2009,07,28,01,51,21.00
2009,07,28,01,52,21.00
2009,07,28,01,53,21.00
2009,07,28,01,54,21.00
2009,07,28,01,55,21.00
2009,07,28,01,56,21.00
2009,07,28,01,57,20.90
2009,07,28,01,58,20.90
2009,07,28,01,59,20.90
2009,07,28,02,00,21.00
2009,07,28,02,01,21.00
2009,07,28,02,02,21.10
2009,07,28,02,03,21.10
2009,07,28,02,04,21.20
2009,07,28,02,05,21.30
2009,07,28,02,06,21.30
2009,07,28,02,07,21.30
2009,07,28,02,08,21.40
2009,07,28,02,09,21.40
2009,07,28,02,10,21.50
2009,07,28,02,11,21.60
2009,07,28,02,12,21.60
2009,07,28,02,13,21.60
2009,07,28,02,14,21.60
2009,07,28,02,15,21.60
2009,07,28,02,16,21.60
2009,07,28,02,17,21.60
2009,07,28,02,18,21.60
2009,07,28,02,19,21.40
2009,07,28,02,20,21.40
2009,07,28,02,21,21.40
2009,07,28,02,22,21.30
2009,07,28,02,23,21.30
2009,07,28,02,24,21.30
2009,07,28,02,25,21.30
2009,07,28,02,26,21.30
2009,07,28,02,27,21.30
2009,07,28,02,28,21.30
2009,07,28,02,29,21.30
2009,07,28,02,30,21.20
2009,07,28,02,31,21.20
2009,07,28,02,32,21.20
2009,07,28,02,33,21.20
2009,07,28,02,34,21.10
2009,07,28,02,35,21.10
2009,07,28,02,36,21.10
2009,07,28,02,37,21.10
2009,07,28,02,38,21.00
2009,07,28,02,39,21.00
2009,07,28,02,40,21.00
2009,07,28,02,41,20.90
2009,07,28,02,42,20.90
2009,07,28,02,43,20.80
2009,07,28,02,44,20.80
2009,07,28,02,45,20.70
2009,07,28,02,46,20.60
2009,07,28,02,47,20.60
2009,07,28,02,48,20.50
2009,07,28,02,49,20.50
2009,07,28,02,50,20.50
2009,07,28,02,51,20.40
2009,07,28,02,52,20.40
2009,07,28,02,53,20.40
2009,07,28,02,54,20.40
2009,07,28,02,55,20.40
2009,07,28,02,56,20.40
2009,07,28,02,57,20.40
2009,07,28,02,58,20.50
2009,07,28,02,59,20.50
2009,07,28,03,00,20.50
2009,07,28,03,01,20.50
2009,07,28,03,02,20.50
2009,07,28,03,03,20.60
2009,07,28,03,04,20.60
2009,07,28,03,05,20.60
2009,07,28,03,06,20.60
2009,07,28,03,07,20.60
2009,07,28,03,08,20.70
2009,07,28,03,09,20.70
2009,07,28,03,10,20.70
2009,07,28,03,11,20.70
2009,07,28,03,12,20.70
2009,07,28,03,13,20.70
2009,07,28,03,14,20.70
2009,07,28,03,15,20.80
2009,07,28,03,16,20.80
2009,07,28,03,17,20.80
2009,07,28,03,18,20.80
2009,07,28,03,19,20.80
2009,07,28,03,20,20.80
2009,07,28,03,21,20.80
2009,07,28,03,22,20.80
2009,07,28,03,23,20.80
2009,07,28,03,24,20.80
2009,07,28,03,25,20.80
2009,07,28,03,26,20.80
2009,07,28,03,27,20.80
2009,07,28,03,28,20.80
2009,07,28,03,29,20.80
2009,07,28,03,30,20.80
2009,07,28,03,31,20.80
2009,07,28,03,32,20.80
2009,07,28,03,33,20.80
2009,07,28,03,34,20.80
2009,07,28,03,35,20.80
2009,07,28,03,36,20.70
2009,07,28,03,37,20.70
2009,07,28,03,38,20.70
2009,07,28,03,39,20.70
2009,07,28,03,40,20.70
2009,07,28,03,41,20.70
2009,07,28,03,42,20.70
2009,07,28,03,43,20.70
2009,07,28,03,44,20.70
2009,07,28,03,45,20.70
2009,07,28,03,46,20.70
2009,07,28,03,47,20.60
2009,07,28,03,48,20.50
2009,07,28,03,49,20.30
2009,07,28,03,50,20.00
2009,07,28,03,51,19.60
2009,07,28,03,52,19.10
2009,07,28,03,53,18.80
2009,07,28,03,54,18.40
2009,07,28,03,55,18.00
2009,07,28,03,56,17.70
2009,07,28,03,57,17.20
2009,07,28,03,58,16.90
2009,07,28,03,59,16.70
2009,07,28,04,00,16.50
2009,07,28,04,01,16.30
2009,07,28,04,02,16.30
2009,07,28,04,03,16.10
2009,07,28,04,04,15.90
2009,07,28,04,05,15.80
2009,07,28,04,06,15.70
2009,07,28,04,07,15.50
2009,07,28,04,08,15.50
2009,07,28,04,09,15.40
2009,07,28,04,10,15.30
2009,07,28,04,11,15.30
2009,07,28,04,12,15.20
2009,07,28,04,13,15.20
2009,07,28,04,14,15.20
2009,07,28,04,15,15.10
2009,07,28,04,16,15.10
2009,07,28,04,17,15.10
2009,07,28,04,18,15.10
2009,07,28,04,19,15.10
2009,07,28,04,20,15.10
2009,07,28,04,21,15.10
2009,07,28,04,22,15.10
2009,07,28,04,23,15.10
2009,07,28,04,24,15.10
2009,07,28,04,25,15.10
2009,07,28,04,26,15.10
2009,07,28,04,27,15.10
2009,07,28,04,28,15.10
2009,07,28,04,29,15.10
2009,07,28,04,30,15.20
2009,07,28,04,31,15.20
2009,07,28,04,32,15.30
2009,07,28,04,33,15.30
2009,07,28,04,34,15.40
2009,07,28,04,35,15.50
2009,07,28,04,36,15.60
2009,07,28,04,37,15.70
2009,07,28,04,38,15.80
2009,07,28,04,39,15.90
2009,07,28,04,40,16.00
2009,07,28,04,41,16.10
2009,07,28,04,42,16.20
2009,07,28,04,43,16.30
2009,07,28,04,44,16.40
2009,07,28,04,45,16.40
2009,07,28,04,46,16.40
2009,07,28,04,47,16.40
2009,07,28,04,48,16.30
2009,07,28,04,49,16.20
2009,07,28,04,50,16.10
2009,07,28,04,51,16.10
2009,07,28,04,52,16.10
2009,07,28,04,53,16.10
2009,07,28,04,54,16.10
2009,07,28,04,55,16.10
2009,07,28,04,56,16.10
2009,07,28,04,57,16.10
2009,07,28,04,58,16.10
2009,07,28,04,59,16.10
2009,07,28,05,00,16.10
2009,07,28,05,01,16.10
2009,07,28,05,02,16.10
2009,07,28,05,03,16.20
2009,07,28,05,04,16.20
2009,07,28,05,05,16.20
2009,07,28,05,06,16.30
2009,07,28,05,07,16.30
2009,07,28,05,08,16.40
2009,07,28,05,09,16.40
2009,07,28,05,10,16.40
2009,07,28,05,11,16.30
2009,07,28,05,12,16.30
2009,07,28,05,13,16.30
2009,07,28,05,14,16.30
2009,07,28,05,15,16.40
2009,07,28,05,16,16.40
2009,07,28,05,17,16.40
2009,07,28,05,18,16.50
2009,07,28,05,19,16.60
2009,07,28,05,20,16.70
2009,07,28,05,21,16.70
2009,07,28,05,22,16.70
2009,07,28,05,23,16.70
2009,07,28,05,24,16.80
2009,07,28,05,25,16.80
2009,07,28,05,26,16.90
2009,07,28,05,27,16.90
2009,07,28,05,28,17.00
2009,07,28,05,29,17.00
2009,07,28,05,30,17.10
2009,07,28,05,31,17.20
2009,07,28,05,32,17.30
2009,07,28,05,33,17.30
2009,07,28,05,34,17.30
2009,07,28,05,35,17.40
2009,07,28,05,36,17.50
2009,07,28,05,37,17.50
2009,07,28,05,38,17.60
2009,07,28,05,39,17.60
2009,07,28,05,40,17.70
2009,07,28,05,41,17.70
2009,07,28,05,42,17.70
2009,07,28,05,43,17.70
2009,07,28,05,44,17.80
2009,07,28,05,45,17.80
2009,07,28,05,46,17.90
2009,07,28,05,47,17.90
2009,07,28,05,48,17.90
2009,07,28,05,49,17.90
2009,07,28,05,50,17.90
2009,07,28,05,51,17.90
2009,07,28,05,52,17.90
2009,07,28,05,53,17.90
2009,07,28,05,54,17.90
2009,07,28,05,55,17.90
2009,07,28,05,56,17.90
2009,07,28,05,57,17.90
2009,07,28,05,58,17.80
2009,07,28,05,59,17.80
2009,07,28,06,00,17.80
2009,07,28,06,01,17.70
2009,07,28,06,02,17.70
2009,07,28,06,03,17.70
2009,07,28,06,04,17.70
2009,07,28,06,05,17.80
2009,07,28,06,06,17.80
2009,07,28,06,07,17.80
2009,07,28,06,08,17.90
2009,07,28,06,09,17.90
2009,07,28,06,10,17.90
2009,07,28,06,11,17.90
2009,07,28,06,12,17.90
2009,07,28,06,13,17.90
2009,07,28,06,14,17.90
2009,07,28,06,15,17.90
2009,07,28,06,16,17.90
2009,07,28,06,17,17.90
2009,07,28,06,18,17.90
2009,07,28,06,19,18.00
2009,07,28,06,20,18.10
2009,07,28,06,21,18.10
2009,07,28,06,22,18.20
2009,07,28,06,23,18.20
2009,07,28,06,24,18.20
2009,07,28,06,25,18.20
2009,07,28,06,26,18.30
2009,07,28,06,27,18.40
2009,07,28,06,28,18.40
2009,07,28,06,29,18.50
2009,07,28,06,30,18.50
2009,07,28,06,31,18.60
2009,07,28,06,32,18.70
2009,07,28,06,33,18.70
2009,07,28,06,34,18.80
2009,07,28,06,35,18.80
2009,07,28,06,36,18.90
2009,07,28,06,37,19.00
2009,07,28,06,38,19.10
2009,07,28,06,39,19.10
2009,07,28,06,40,19.10
2009,07,28,06,41,19.20
2009,07,28,06,42,19.20
2009,07,28,06,43,19.30
2009,07,28,06,44,19.30
2009,07,28,06,45,19.40
2009,07,28,06,46,19.40
2009,07,28,06,47,19.50
2009,07,28,06,48,19.50
2009,07,28,06,49,19.60
2009,07,28,06,50,19.60
2009,07,28,06,51,19.60
2009,07,28,06,52,19.70
2009,07,28,06,53,19.70
2009,07,28,06,54,19.80
2009,07,28,06,55,19.80
2009,07,28,06,56,19.80
2009,07,28,06,57,19.90
2009,07,28,06,58,19.90
2009,07,28,06,59,20.00
2009,07,28,07,00,20.10
2009,07,28,07,01,20.20
2009,07,28,07,02,20.20
2009,07,28,07,03,20.30
2009,07,28,07,04,20.40
2009,07,28,07,05,20.50
2009,07,28,07,06,20.50
2009,07,28,07,07,20.60
2009,07,28,07,08,20.70
2009,07,28,07,09,20.80
2009,07,28,07,10,20.90
2009,07,28,07,11,21.10
2009,07,28,07,12,21.20
2009,07,28,07,13,21.30
2009,07,28,07,14,21.30
2009,07,28,07,15,21.30
2009,07,28,07,16,21.40
2009,07,28,07,17,21.40
2009,07,28,07,18,21.40
2009,07,28,07,19,21.40
2009,07,28,07,20,21.50
2009,07,28,07,21,21.60
2009,07,28,07,22,21.60
2009,07,28,07,23,21.70
2009,07,28,07,24,21.80
2009,07,28,07,25,21.80
2009,07,28,07,26,21.90
2009,07,28,07,27,21.90
2009,07,28,07,28,22.00
2009,07,28,07,29,22.00
2009,07,28,07,30,22.00
2009,07,28,07,31,21.90
2009,07,28,07,32,21.70
2009,07,28,07,33,21.40
2009,07,28,07,34,21.10
2009,07,28,07,35,20.90
2009,07,28,07,36,20.70
2009,07,28,07,37,20.40
2009,07,28,07,38,20.10
2009,07,28,07,39,19.90
2009,07,28,07,40,19.70
2009,07,28,07,41,19.60
2009,07,28,07,42,19.50
2009,07,28,07,43,19.50
2009,07,28,07,44,19.40
2009,07,28,07,45,19.40
2009,07,28,07,46,19.40
2009,07,28,07,47,19.30
2009,07,28,07,48,19.30
2009,07,28,07,49,19.40
2009,07,28,07,50,19.40
2009,07,28,07,51,19.50
2009,07,28,07,52,19.60
2009,07,28,07,53,19.70
2009,07,28,07,54,19.80
2009,07,28,07,55,19.90
2009,07,28,07,56,19.90
2009,07,28,07,57,19.90
2009,07,28,07,58,19.90
2009,07,28,07,59,19.90
2009,07,28,08,00,19.90
2009,07,28,08,01,19.90
2009,07,28,08,02,20.10
2009,07,28,08,03,20.10
2009,07,28,08,04,20.10
2009,07,28,08,05,20.20
2009,07,28,08,06,20.20
2009,07,28,08,07,20.20
2009,07,28,08,08,20.20
2009,07,28,08,09,20.30
2009,07,28,08,10,20.40
2009,07,28,08,11,20.50
2009,07,28,08,12,20.50
2009,07,28,08,13,20.70
2009,07,28,08,14,20.80
2009,07,28,08,15,20.90
2009,07,28,08,16,21.00
2009,07,28,08,17,21.20
2009,07,28,08,18,21.30
2009,07,28,08,19,21.50
2009,07,28,08,20,21.70
2009,07,28,08,21,21.90
2009,07,28,08,22,22.00
2009,07,28,08,23,22.10
2009,07,28,08,24,22.20
2009,07,28,08,25,22.30
2009,07,28,08,26,22.40
2009,07,28,08,27,22.50
2009,07,28,08,28,22.60
2009,07,28,08,29,22.70
2009,07,28,08,30,22.80
2009,07,28,08,31,22.90
2009,07,28,08,32,23.00
2009,07,28,08,33,23.10
2009,07,28,08,34,23.20
2009,07,28,08,35,23.30
2009,07,28,08,36,23.40
2009,07,28,08,37,23.40
2009,07,28,08,38,23.40
2009,07,28,08,39,23.40
2009,07,28,08,40,23.40
2009,07,28,08,41,23.30
2009,07,28,08,42,23.30
2009,07,28,08,43,23.30
2009,07,28,08,44,23.30
2009,07,28,08,45,23.30
2009,07,28,08,46,23.30
2009,07,28,08,47,23.30
2009,07,28,08,48,23.30
2009,07,28,08,49,23.30
2009,07,28,08,50,23.20
2009,07,28,08,51,23.00
2009,07,28,08,52,22.90
2009,07,28,08,53,22.80
2009,07,28,08,54,22.70
2009,07,28,08,55,22.60
2009,07,28,08,56,22.60
2009,07,28,08,57,22.60
2009,07,28,08,58,22.60
2009,07,28,08,59,22.50
2009,07,28,09,00,22.50
2009,07,28,09,01,22.50
2009,07,28,09,02,22.40
2009,07,28,09,03,22.10
2009,07,28,09,04,21.80
2009,07,28,09,05,21.40
2009,07,28,09,06,21.00
2009,07,28,09,07,20.60
2009,07,28,09,08,20.20
2009,07,28,09,09,20.00
2009,07,28,09,10,19.80
2009,07,28,09,11,19.60
2009,07,28,09,12,19.60
2009,07,28,09,13,19.70
2009,07,28,09,14,19.70
2009,07,28,09,15,19.60
2009,07,28,09,16,19.50
2009,07,28,09,17,19.40
2009,07,28,09,18,19.50
2009,07,28,09,19,19.50
2009,07,28,09,20,19.60
2009,07,28,09,21,19.60
2009,07,28,09,22,19.60
2009,07,28,09,23,19.60
2009,07,28,09,24,19.70
2009,07,28,09,25,19.80
2009,07,28,09,26,19.90
2009,07,28,09,27,19.90
2009,07,28,09,28,19.90
2009,07,28,09,29,19.90
2009,07,28,09,30,19.90
2009,07,28,09,31,20.00
2009,07,28,09,32,20.20
2009,07,28,09,33,20.40
2009,07,28,09,34,20.50
2009,07,28,09,35,20.70
2009,07,28,09,36,20.80
2009,07,28,09,37,20.90
2009,07,28,09,38,20.90
2009,07,28,09,39,21.00
2009,07,28,09,40,21.20
2009,07,28,09,41,21.30
2009,07,28,09,42,21.40
2009,07,28,09,43,21.50
2009,07,28,09,44,21.60
2009,07,28,09,45,21.70
2009,07,28,09,46,21.90
2009,07,28,09,47,22.00
2009,07,28,09,48,22.10
2009,07,28,09,49,22.10
2009,07,28,09,50,22.20
2009,07,28,09,51,22.20
2009,07,28,09,52,22.20
2009,07,28,09,53,22.20
2009,07,28,09,54,22.30
2009,07,28,09,55,22.40
2009,07,28,09,56,22.50
2009,07,28,09,57,22.60
2009,07,28,09,58,22.60
2009,07,28,09,59,22.80
2009,07,28,10,00,22.80
2009,07,28,10,01,22.90
2009,07,28,10,02,22.90
2009,07,28,10,03,22.80
2009,07,28,10,04,22.70
2009,07,28,10,05,22.60
2009,07,28,10,06,22.50
2009,07,28,10,07,22.50
2009,07,28,10,08,22.50
2009,07,28,10,09,22.40
2009,07,28,10,10,22.40
2009,07,28,10,11,22.40
2009,07,28,10,12,22.20
2009,07,28,10,13,21.90
2009,07,28,10,14,21.60
2009,07,28,10,15,21.40
2009,07,28,10,16,21.30
2009,07,28,10,17,21.30
2009,07,28,10,18,21.50
2009,07,28,10,19,21.60
2009,07,28,10,20,21.70
2009,07,28,10,21,21.90
2009,07,28,10,22,22.10
2009,07,28,10,23,22.30
2009,07,28,10,24,22.50
2009,07,28,10,25,22.60
2009,07,28,10,26,22.70
2009,07,28,10,27,22.90
2009,07,28,10,28,23.00
2009,07,28,10,29,23.20
2009,07,28,10,30,23.30
2009,07,28,10,31,23.30
2009,07,28,10,32,23.40
2009,07,28,10,33,23.50
2009,07,28,10,34,23.60
2009,07,28,10,35,23.60
2009,07,28,10,36,23.70
2009,07,28,10,37,23.70
2009,07,28,10,38,23.80
2009,07,28,10,39,23.80
2009,07,28,10,40,23.80
2009,07,28,10,41,23.90
2009,07,28,10,42,23.90
2009,07,28,10,43,23.90
2009,07,28,10,44,23.90
2009,07,28,10,45,24.00
2009,07,28,10,46,24.00
2009,07,28,10,47,23.90
2009,07,28,10,48,24.00
2009,07,28,10,49,24.10
2009,07,28,10,50,24.10
2009,07,28,10,51,24.10
2009,07,28,10,52,24.10
2009,07,28,10,53,23.90
2009,07,28,10,54,23.70
2009,07,28,10,55,23.30
2009,07,28,10,56,23.10
2009,07,28,10,57,22.90
2009,07,28,10,58,22.70
2009,07,28,10,59,22.60
2009,07,28,11,00,22.50
2009,07,28,11,01,22.40
2009,07,28,11,02,22.50
2009,07,28,11,03,22.60
2009,07,28,11,04,22.70
2009,07,28,11,05,22.80
2009,07,28,11,06,22.90
2009,07,28,11,07,23.00
2009,07,28,11,08,23.20
2009,07,28,11,09,23.30
2009,07,28,11,10,23.30
2009,07,28,11,11,23.30
2009,07,28,11,12,23.30
2009,07,28,11,13,23.30
2009,07,28,11,14,23.40
2009,07,28,11,15,23.50
2009,07,28,11,16,23.70
2009,07,28,11,17,23.80
2009,07,28,11,18,23.90
2009,07,28,11,19,23.90
2009,07,28,11,20,24.10
2009,07,28,11,21,24.10
2009,07,28,11,22,24.10
2009,07,28,11,23,24.10
2009,07,28,11,24,24.10
2009,07,28,11,25,24.10
2009,07,28,11,26,24.10
2009,07,28,11,27,24.20
2009,07,28,11,28,24.20
2009,07,28,11,29,24.30
2009,07,28,11,30,24.30
2009,07,28,11,31,24.40
2009,07,28,11,32,24.50
2009,07,28,11,33,24.60
2009,07,28,11,34,24.70
2009,07,28,11,35,24.70
2009,07,28,11,36,24.60
2009,07,28,11,37,24.50
2009,07,28,11,38,24.50
2009,07,28,11,39,24.50
2009,07,28,11,40,24.60
2009,07,28,11,41,24.70
2009,07,28,11,42,24.70
2009,07,28,11,43,24.70
2009,07,28,11,44,24.70
2009,07,28,11,45,24.60
2009,07,28,11,46,24.60
2009,07,28,11,47,24.50
2009,07,28,11,48,24.50
2009,07,28,11,49,24.60
2009,07,28,11,50,24.60
2009,07,28,11,51,24.60
2009,07,28,11,52,24.50
2009,07,28,11,53,24.50
2009,07,28,11,54,24.50
2009,07,28,11,55,24.50
2009,07,28,11,56,24.40
2009,07,28,11,57,24.30
2009,07,28,11,58,24.20
2009,07,28,11,59,24.20
2009,07,28,12,00,24.10
2009,07,28,12,01,24.10
2009,07,28,12,02,24.10
2009,07,28,12,03,24.00
2009,07,28,12,04,23.90
2009,07,28,12,05,23.90
2009,07,28,12,06,23.90
2009,07,28,12,07,23.90
2009,07,28,12,08,23.80
2009,07,28,12,09,23.80
2009,07,28,12,10,23.80
2009,07,28,12,11,23.80
2009,07,28,12,12,23.70
2009,07,28,12,13,23.70
2009,07,28,12,14,23.70
2009,07,28,12,15,23.70
2009,07,28,12,16,23.70
2009,07,28,12,17,23.80
2009,07,28,12,18,23.90
2009,07,28,12,19,24.00
2009,07,28,12,20,24.10
2009,07,28,12,21,24.10
2009,07,28,12,22,24.10
2009,07,28,12,23,24.10
2009,07,28,12,24,24.10
2009,07,28,12,25,24.00
2009,07,28,12,26,23.90
2009,07,28,12,27,24.00
2009,07,28,12,28,24.10
2009,07,28,12,29,24.20
2009,07,28,12,30,24.40
2009,07,28,12,31,24.50
2009,07,28,12,32,24.70
2009,07,28,12,33,24.80
2009,07,28,12,34,24.80
2009,07,28,12,35,24.90
2009,07,28,12,36,24.90
2009,07,28,12,37,24.90
2009,07,28,12,38,24.90
2009,07,28,12,39,24.90
2009,07,28,12,40,24.90
2009,07,28,12,41,24.90
2009,07,28,12,42,24.90
2009,07,28,12,43,25.00
2009,07,28,12,44,25.00
2009,07,28,12,45,25.00
2009,07,28,12,46,25.00
2009,07,28,12,47,25.00
2009,07,28,12,48,24.90
2009,07,28,12,49,24.80
2009,07,28,12,50,24.70
2009,07,28,12,51,24.70
2009,07,28,12,52,24.70
2009,07,28,12,53,24.70
2009,07,28,12,54,24.70
2009,07,28,12,55,24.70
2009,07,28,12,56,24.80
2009,07,28,12,57,24.90
2009,07,28,12,58,24.90
2009,07,28,12,59,24.90
2009,07,28,13,00,24.70
2009,07,28,13,01,24.60
2009,07,28,13,02,24.50
2009,07,28,13,03,24.40
2009,07,28,13,04,24.30
2009,07,28,13,05,24.30
2009,07,28,13,06,24.30
2009,07,28,13,07,24.30
2009,07,28,13,08,24.50
2009,07,28,13,09,24.60
2009,07,28,13,10,24.70
2009,07,28,13,11,24.80
2009,07,28,13,12,24.90
2009,07,28,13,13,24.90
2009,07,28,13,14,24.90
2009,07,28,13,15,25.00
2009,07,28,13,16,25.10
2009,07,28,13,17,25.20
2009,07,28,13,18,25.30
2009,07,28,13,19,25.40
2009,07,28,13,20,25.40
2009,07,28,13,21,25.40
2009,07,28,13,22,25.40
2009,07,28,13,23,25.50
2009,07,28,13,24,25.50
2009,07,28,13,25,25.50
2009,07,28,13,26,25.50
2009,07,28,13,27,25.60
2009,07,28,13,28,25.60
2009,07,28,13,29,25.60
2009,07,28,13,30,25.60
2009,07,28,13,31,25.60
2009,07,28,13,32,25.70
2009,07,28,13,33,25.60
2009,07,28,13,34,25.60
2009,07,28,13,35,25.60
2009,07,28,13,36,25.70
2009,07,28,13,37,25.70
2009,07,28,13,38,25.60
2009,07,28,13,39,25.60
2009,07,28,13,40,25.50
2009,07,28,13,41,25.50
2009,07,28,13,42,25.50
2009,07,28,13,43,25.50
2009,07,28,13,44,25.60
2009,07,28,13,45,25.60
2009,07,28,13,46,25.60
2009,07,28,13,47,25.60
2009,07,28,13,48,25.40
2009,07,28,13,49,25.40
2009,07,28,13,50,25.30
2009,07,28,13,51,25.30
2009,07,28,13,52,25.40
2009,07,28,13,53,25.40
2009,07,28,13,54,25.30
2009,07,28,13,55,25.20
2009,07,28,13,56,25.20
2009,07,28,13,57,25.30
2009,07,28,13,58,25.30
2009,07,28,13,59,25.30
2009,07,28,14,00,25.40
2009,07,28,14,01,25.40
2009,07,28,14,02,25.50
2009,07,28,14,03,25.60
2009,07,28,14,04,25.60
2009,07,28,14,05,25.50
2009,07,28,14,06,25.40
2009,07,28,14,07,25.40
2009,07,28,14,08,25.40
2009,07,28,14,09,25.40
2009,07,28,14,10,25.40
2009,07,28,14,11,25.50
2009,07,28,14,12,25.50
2009,07,28,14,13,25.40
2009,07,28,14,14,25.40
2009,07,28,14,15,25.40
2009,07,28,14,16,25.50
2009,07,28,14,17,25.40
2009,07,28,14,18,25.30
2009,07,28,14,19,25.30
2009,07,28,14,20,25.20
2009,07,28,14,21,25.20
2009,07,28,14,22,25.20
2009,07,28,14,23,25.20
2009,07,28,14,24,25.20
2009,07,28,14,25,25.40
2009,07,28,14,26,25.40
2009,07,28,14,27,25.50
2009,07,28,14,28,25.60
2009,07,28,14,29,25.60
2009,07,28,14,30,25.60
2009,07,28,14,31,25.70
2009,07,28,14,32,25.70
2009,07,28,14,33,25.80
2009,07,28,14,34,25.90
2009,07,28,14,35,25.90
2009,07,28,14,36,26.00
2009,07,28,14,37,26.20
2009,07,28,14,38,26.30
2009,07,28,14,39,26.40
2009,07,28,14,40,26.60
2009,07,28,14,41,26.60
2009,07,28,14,42,26.70
2009,07,28,14,43,26.70
2009,07,28,14,44,26.80
2009,07,28,14,45,26.90
2009,07,28,14,46,26.90
2009,07,28,14,47,26.90
2009,07,28,14,48,26.90
2009,07,28,14,49,26.80
2009,07,28,14,50,26.70
2009,07,28,14,51,26.60
2009,07,28,14,52,26.70
2009,07,28,14,53,26.70
2009,07,28,14,54,26.70
2009,07,28,14,55,26.70
2009,07,28,14,56,26.60
2009,07,28,14,57,26.50
2009,07,28,14,58,26.40
2009,07,28,14,59,26.40
2009,07,28,15,00,26.50
2009,07,28,15,01,26.60
2009,07,28,15,02,26.50
2009,07,28,15,03,26.40
2009,07,28,15,04,26.40
2009,07,28,15,05,26.40
2009,07,28,15,06,26.40
2009,07,28,15,07,26.40
2009,07,28,15,08,26.40
2009,07,28,15,09,26.40
2009,07,28,15,10,26.40
2009,07,28,15,11,26.30
2009,07,28,15,12,26.30
2009,07,28,15,13,26.40
2009,07,28,15,14,26.40
2009,07,28,15,15,26.40
2009,07,28,15,16,26.50
2009,07,28,15,17,26.60
2009,07,28,15,18,26.60
2009,07,28,15,19,26.70
2009,07,28,15,20,26.70
2009,07,28,15,21,26.80
2009,07,28,15,22,26.80
2009,07,28,15,23,26.90
2009,07,28,15,24,27.00
2009,07,28,15,25,27.10
2009,07,28,15,26,27.10
2009,07,28,15,27,27.10
2009,07,28,15,28,27.10
2009,07,28,15,29,27.10
2009,07,28,15,30,27.10
2009,07,28,15,31,27.10
2009,07,28,15,32,27.10
2009,07,28,15,33,27.10
2009,07,28,15,34,27.10
2009,07,28,15,35,27.10
2009,07,28,15,36,27.10
2009,07,28,15,37,27.20
2009,07,28,15,38,27.20
2009,07,28,15,39,27.20
2009,07,28,15,40,27.30
2009,07,28,15,41,27.40
2009,07,28,15,42,27.50
2009,07,28,15,43,27.60
2009,07,28,15,44,27.60
2009,07,28,15,45,27.60
2009,07,28,15,46,27.60
2009,07,28,15,47,27.50
2009,07,28,15,48,27.40
2009,07,28,15,49,27.40
2009,07,28,15,50,27.40
2009,07,28,15,51,27.40
2009,07,28,15,52,27.40
2009,07,28,15,53,27.40
2009,07,28,15,54,27.30
2009,07,28,15,55,27.30
2009,07,28,15,56,27.30
2009,07,28,15,57,27.30
2009,07,28,15,58,27.30
2009,07,28,15,59,27.30
2009,07,28,16,00,27.30
2009,07,28,16,01,27.20
2009,07,28,16,02,27.20
2009,07,28,16,03,27.20
2009,07,28,16,04,27.20
2009,07,28,16,05,27.30
2009,07,28,16,06,27.30
2009,07,28,16,07,27.30
2009,07,28,16,08,27.30
2009,07,28,16,09,27.30
2009,07,28,16,10,27.30
2009,07,28,16,11,27.30
2009,07,28,16,12,27.30
2009,07,28,16,13,27.30
2009,07,28,16,14,27.30
2009,07,28,16,15,27.30
2009,07,28,16,16,27.30
2009,07,28,16,17,27.40
2009,07,28,16,18,27.30
2009,07,28,16,19,27.30
2009,07,28,16,20,27.30
2009,07,28,16,21,27.30
2009,07,28,16,22,27.30
2009,07,28,16,23,27.30
2009,07,28,16,24,27.40
2009,07,28,16,25,27.40
2009,07,28,16,26,27.60
2009,07,28,16,27,27.60
2009,07,28,16,28,27.60
2009,07,28,16,29,27.70
2009,07,28,16,30,27.70
2009,07,28,16,31,27.80
2009,07,28,16,32,27.80
2009,07,28,16,33,27.80
2009,07,28,16,34,27.80
2009,07,28,16,35,27.80
2009,07,28,16,36,27.90
2009,07,28,16,37,28.00
2009,07,28,16,38,28.00
2009,07,28,16,39,28.10
2009,07,28,16,40,28.10
2009,07,28,16,41,28.10
2009,07,28,16,42,28.20
2009,07,28,16,43,28.20
2009,07,28,16,44,28.20
2009,07,28,16,45,28.20
2009,07,28,16,46,28.20
2009,07,28,16,47,28.30
2009,07,28,16,48,28.30
2009,07,28,16,49,28.30
2009,07,28,16,50,28.30
2009,07,28,16,51,28.40
2009,07,28,16,52,28.50
2009,07,28,16,53,28.60
2009,07,28,16,54,28.60
2009,07,28,16,55,28.70
2009,07,28,16,56,28.70
2009,07,28,16,57,28.80
2009,07,28,16,58,28.80
2009,07,28,16,59,28.80
2009,07,28,17,00,28.80
2009,07,28,17,01,28.70
2009,07,28,17,02,28.70
2009,07,28,17,03,28.70
2009,07,28,17,04,28.70
2009,07,28,17,05,28.70
2009,07,28,17,06,28.70
2009,07,28,17,07,28.70
2009,07,28,17,08,28.70
2009,07,28,17,09,28.80
2009,07,28,17,10,28.80
2009,07,28,17,11,28.80
2009,07,28,17,12,28.80
2009,07,28,17,13,28.80
2009,07,28,17,14,28.80
2009,07,28,17,15,28.80
2009,07,28,17,16,28.80
2009,07,28,17,17,28.80
2009,07,28,17,18,28.90
2009,07,28,17,19,28.90